Time,TemperatureF,DewpointF,PressureIn,WindDirection,WindDirectionDegrees,WindSpeedMPH,WindSpeedGustMPH,Humidity,HourlyPrecipIn,Conditions,Clouds,dailyrainin,SoftwareType,DateUTC
2013-08-09 00:03:00,76.8,71.2,29.98,SSE,167,2.0,6.0,83,0.00,,,0.00,Wunderground PWS Mod,2013-08-09 04:03:00,
2013-08-09 00:13:00,76.7,70.8,29.98,South,178,1.0,6.0,82,0.00,,,0.00,Wunderground PWS Mod,2013-08-09 04:13:00,
2013-08-09 00:16:00,76.7,70.8,29.97,SSW,203,2.0,6.0,82,0.00,,,0.00,Wunderground PWS Mod,2013-08-09 04:16:00,
2013-08-09 00:24:00,76.8,71.2,29.98,SSW,196,4.0,6.0,83,0.00,,,0.00,Wunderground PWS Mod,2013-08-09 04:24:00,
2013-08-09 00:27:00,76.8,70.9,29.98,SSW,210,2.0,6.0,82,0.00,,,0.00,Wunderground PWS Mod,2013-08-09 04:27:00,
2013-08-09 00:33:00,76.6,70.7,29.98,SSW,213,3.0,6.0,82,0.00,,,0.00,Wunderground PWS Mod,2013-08-09 04:33:00,
2013-08-09 00:38:00,76.6,70.7,29.98,SSW,198,3.0,6.0,82,0.00,,,0.00,Wunderground PWS Mod,2013-08-09 04:38:00,
2013-08-09 00:43:00,76.4,70.9,29.97,SSW,194,2.0,6.0,83,0.00,,,0.00,Wunderground PWS Mod,2013-08-09 04:43:00,
2013-08-09 00:48:00,76.4,70.9,29.97,South,180,3.0,8.0,83,0.00,,,0.00,Wunderground PWS Mod,2013-08-09 04:48:00,
2013-08-09 00:54:00,76.3,70.8,29.97,South,181,5.0,6.0,83,0.00,,,0.00,Wunderground PWS Mod,2013-08-09 04:54:00,
2013-08-09 01:03:00,76.2,70.7,29.97,SSE,149,4.0,6.0,83,0.00,,,0.00,Wunderground PWS Mod,2013-08-09 05:03:00,
2013-08-09 01:13:00,76.4,70.9,29.97,SW,217,3.0,8.0,83,0.00,,,0.00,Wunderground PWS Mod,2013-08-09 05:13:00,
2013-08-09 01:16:00,76.4,70.5,29.96,SSW,203,3.0,8.0,82,0.00,,,0.00,Wunderground PWS Mod,2013-08-09 05:16:00,
2013-08-09 01:24:00,76.5,70.9,29.96,SE,141,3.0,8.0,83,0.00,,,0.00,Wunderground PWS Mod,2013-08-09 05:24:00,
2013-08-09 01:33:00,76.9,71.0,29.96,SSW,201,3.0,8.0,82,0.00,,,0.00,Wunderground PWS Mod,2013-08-09 05:33:00,
2013-08-09 01:43:00,77.0,71.1,29.96,South,185,3.0,8.0,82,0.00,,,0.00,Wunderground PWS Mod,2013-08-09 05:43:00,
2013-08-09 01:46:00,77.1,70.8,29.96,SSW,203,3.0,8.0,81,0.00,,,0.00,Wunderground PWS Mod,2013-08-09 05:46:00,
2013-08-09 01:53:00,77.2,70.9,29.96,SW,233,3.0,8.0,81,0.00,,,0.00,Wunderground PWS Mod,2013-08-09 05:53:00,
2013-08-09 02:03:00,77.3,71.0,29.96,SSW,192,3.0,8.0,81,0.00,,,0.00,Wunderground PWS Mod,2013-08-09 06:03:00,
2013-08-09 02:13:00,76.7,70.8,29.96,SSW,199,2.0,8.0,82,0.00,,,0.00,Wunderground PWS Mod,2013-08-09 06:13:00,
2013-08-09 02:18:00,76.7,70.8,29.95,SSW,203,3.0,8.0,82,0.00,,,0.00,Wunderground PWS Mod,2013-08-09 06:18:00,
2013-08-09 02:24:00,76.6,70.7,29.95,SSW,192,4.0,8.0,82,0.00,,,0.00,Wunderground PWS Mod,2013-08-09 06:24:00,
2013-08-09 02:33:00,76.4,70.5,29.95,SSW,201,2.0,8.0,82,0.00,,,0.00,Wunderground PWS Mod,2013-08-09 06:33:00,
2013-08-09 02:43:00,76.4,70.5,29.95,SSW,202,2.0,8.0,82,0.00,,,0.00,Wunderground PWS Mod,2013-08-09 06:43:00,
2013-08-09 02:48:00,76.6,70.3,29.95,SSW,203,3.0,7.0,81,0.00,,,0.00,Wunderground PWS Mod,2013-08-09 06:48:00,
2013-08-09 02:54:00,76.8,70.9,29.95,SSW,206,2.0,8.0,82,0.00,,,0.00,Wunderground PWS Mod,2013-08-09 06:54:00,
2013-08-09 03:03:00,77.4,71.1,29.95,SW,222,2.0,8.0,81,0.00,,,0.00,Wunderground PWS Mod,2013-08-09 07:03:00,
2013-08-09 03:13:00,77.5,71.2,29.95,South,190,3.0,8.0,81,0.00,,,0.00,Wunderground PWS Mod,2013-08-09 07:13:00,
2013-08-09 03:16:00,77.6,70.9,29.94,SSW,203,3.0,8.0,80,0.00,,,0.00,Wunderground PWS Mod,2013-08-09 07:16:00,
2013-08-09 03:24:00,77.9,71.2,29.95,SSW,211,5.0,8.0,80,0.00,,,0.00,Wunderground PWS Mod,2013-08-09 07:24:00,
2013-08-09 03:33:00,77.8,71.1,29.94,South,185,2.0,8.0,80,0.00,,,0.00,Wunderground PWS Mod,2013-08-09 07:33:00,
2013-08-09 03:44:00,77.6,70.9,29.94,South,185,6.0,8.0,80,0.00,,,0.00,Wunderground PWS Mod,2013-08-09 07:44:00,
2013-08-09 03:50:00,77.4,71.5,29.93,SSW,203,3.0,8.0,82,0.00,,,0.00,Wunderground PWS Mod,2013-08-09 07:50:00,
2013-08-09 03:52:00,77.4,71.5,29.93,SSW,203,3.0,8.0,82,0.00,,,0.00,Wunderground PWS Mod,2013-08-09 07:52:00,
2013-08-09 03:53:00,77.1,71.2,29.94,SSW,206,4.0,8.0,82,0.00,,,0.00,Wunderground PWS Mod,2013-08-09 07:53:00,
2013-08-09 03:54:00,77.4,71.5,29.93,SSW,203,3.0,8.0,82,0.00,,,0.00,Wunderground PWS Mod,2013-08-09 07:54:00,
2013-08-09 04:03:00,76.6,70.7,29.93,SSW,204,5.0,8.0,82,0.00,,,0.00,Wunderground PWS Mod,2013-08-09 08:03:00,
2013-08-09 04:13:00,76.3,70.8,29.93,SSW,200,4.0,8.0,83,0.00,,,0.00,Wunderground PWS Mod,2013-08-09 08:13:00,
2013-08-09 04:18:00,76.3,70.8,29.93,SSW,203,3.0,8.0,83,0.00,,,0.00,Wunderground PWS Mod,2013-08-09 08:18:00,
2013-08-09 04:24:00,76.1,70.6,29.93,South,177,2.0,8.0,83,0.00,,,0.00,Wunderground PWS Mod,2013-08-09 08:24:00,
2013-08-09 04:33:00,76.2,70.7,29.93,SSW,196,5.0,8.0,83,0.00,,,0.00,Wunderground PWS Mod,2013-08-09 08:33:00,
2013-08-09 04:44:00,76.1,70.9,29.93,SW,221,1.0,8.0,84,0.00,,,0.00,Wunderground PWS Mod,2013-08-09 08:44:00,
2013-08-09 04:48:00,76.4,70.9,29.92,SSW,203,4.0,8.0,83,0.00,,,0.00,Wunderground PWS Mod,2013-08-09 08:48:00,
2013-08-09 04:54:00,76.7,71.1,29.93,SSW,209,5.0,8.0,83,0.00,,,0.00,Wunderground PWS Mod,2013-08-09 08:54:00,
2013-08-09 05:04:00,76.6,71.0,29.93,South,171,4.0,8.0,83,0.00,,,0.00,Wunderground PWS Mod,2013-08-09 09:04:00,
2013-08-09 05:14:00,76.5,70.9,29.92,SSW,197,4.0,8.0,83,0.00,,,0.00,Wunderground PWS Mod,2013-08-09 09:14:00,
2013-08-09 05:18:00,76.7,70.4,29.92,SSW,203,4.0,8.0,81,0.00,,,0.00,Wunderground PWS Mod,2013-08-09 09:18:00,
2013-08-09 05:24:00,76.7,71.1,29.93,SSW,203,4.0,8.0,83,0.00,,,0.00,Wunderground PWS Mod,2013-08-09 09:24:00,
2013-08-09 05:33:00,77.4,71.1,29.92,SW,236,1.0,8.0,81,0.00,,,0.00,Wunderground PWS Mod,2013-08-09 09:33:00,
2013-08-09 05:44:00,77.3,71.0,29.92,SSW,211,3.0,8.0,81,0.00,,,0.00,Wunderground PWS Mod,2013-08-09 09:44:00,
2013-08-09 05:50:00,77.2,70.9,29.92,SSW,203,4.0,10.0,81,0.00,,,0.00,Wunderground PWS Mod,2013-08-09 09:50:00,
2013-08-09 05:52:00,77.2,70.9,29.92,SSW,203,4.0,10.0,81,0.00,,,0.00,Wunderground PWS Mod,2013-08-09 09:52:00,
2013-08-09 05:53:00,77.0,70.7,29.92,South,176,3.0,8.0,81,0.00,,,0.00,Wunderground PWS Mod,2013-08-09 09:53:00,
2013-08-09 05:54:00,77.2,70.9,29.92,SSW,203,4.0,10.0,81,0.00,,,0.00,Wunderground PWS Mod,2013-08-09 09:54:00,
2013-08-09 06:03:00,76.6,70.7,29.92,South,190,3.0,8.0,82,0.00,,,0.00,Wunderground PWS Mod,2013-08-09 10:03:00,
2013-08-09 06:13:00,76.3,70.4,29.92,SSW,207,3.0,10.0,82,0.00,,,0.00,Wunderground PWS Mod,2013-08-09 10:13:00,
2013-08-09 06:16:00,76.3,70.8,29.92,SSW,203,4.0,9.0,83,0.00,,,0.00,Wunderground PWS Mod,2013-08-09 10:16:00,
2013-08-09 06:24:00,76.3,70.8,29.92,SSW,209,4.0,10.0,83,0.00,,,0.00,Wunderground PWS Mod,2013-08-09 10:24:00,
2013-08-09 06:34:00,76.3,70.8,29.92,SSW,199,4.0,10.0,83,0.00,,,0.00,Wunderground PWS Mod,2013-08-09 10:34:00,
2013-08-09 06:43:00,76.3,70.4,29.92,SW,219,5.0,10.0,82,0.00,,,0.00,Wunderground PWS Mod,2013-08-09 10:43:00,
2013-08-09 06:48:00,76.7,70.1,29.92,SSW,203,4.0,9.0,80,0.00,,,0.00,Wunderground PWS Mod,2013-08-09 10:48:00,
2013-08-09 06:54:00,77.2,70.9,29.92,South,170,1.0,10.0,81,0.00,,,0.00,Wunderground PWS Mod,2013-08-09 10:54:00,
2013-08-09 07:03:00,77.5,70.8,29.92,South,190,2.0,9.0,80,0.00,,,0.00,Wunderground PWS Mod,2013-08-09 11:03:00,
2013-08-09 07:13:00,78.2,71.2,29.92,SW,229,2.0,9.0,79,0.00,,,0.00,Wunderground PWS Mod,2013-08-09 11:13:00,
2013-08-09 07:18:00,78.1,71.1,29.91,SSW,203,4.0,10.0,79,0.00,,,0.00,Wunderground PWS Mod,2013-08-09 11:18:00,
2013-08-09 07:24:00,78.4,71.3,29.92,SSW,209,2.0,9.0,79,0.00,,,0.00,Wunderground PWS Mod,2013-08-09 11:24:00,
2013-08-09 07:34:00,77.9,70.9,29.92,SSW,210,5.0,10.0,79,0.00,,,0.00,Wunderground PWS Mod,2013-08-09 11:34:00,
2013-08-09 07:43:00,78.2,71.2,29.91,SW,226,3.0,10.0,79,0.00,,,0.00,Wunderground PWS Mod,2013-08-09 11:43:00,
2013-08-09 07:46:00,78.5,71.1,29.92,SSW,203,3.0,9.0,78,0.00,,,0.00,Wunderground PWS Mod,2013-08-09 11:46:00,
2013-08-09 07:54:00,79.2,71.7,29.92,West,261,3.0,10.0,78,0.00,,,0.00,Wunderground PWS Mod,2013-08-09 11:54:00,
2013-08-09 08:04:00,79.7,72.2,29.92,West,263,5.0,10.0,78,0.00,,,0.00,Wunderground PWS Mod,2013-08-09 12:04:00,
2013-08-09 08:13:00,79.7,72.2,29.92,SW,228,2.0,10.0,78,0.00,,,0.00,Wunderground PWS Mod,2013-08-09 12:13:00,
2013-08-09 08:16:00,80.0,72.1,29.91,WSW,248,3.0,9.0,77,0.00,,,0.00,Wunderground PWS Mod,2013-08-09 12:16:00,
2013-08-09 08:23:00,80.6,72.3,29.91,WNW,288,1.0,10.0,76,0.00,,,0.00,Wunderground PWS Mod,2013-08-09 12:23:00,
2013-08-09 08:34:00,79.7,71.8,29.91,WSW,251,2.0,10.0,77,0.00,,,0.00,Wunderground PWS Mod,2013-08-09 12:34:00,
2013-08-09 08:43:00,79.4,71.9,29.91,South,171,2.0,10.0,78,0.00,,,0.00,Wunderground PWS Mod,2013-08-09 12:43:00,
2013-08-09 08:46:00,79.6,71.4,29.91,WSW,248,4.0,12.0,76,0.00,,,0.00,Wunderground PWS Mod,2013-08-09 12:46:00,
2013-08-09 08:53:00,79.8,71.9,29.91,West,266,8.0,10.0,77,0.00,,,0.00,Wunderground PWS Mod,2013-08-09 12:53:00,
2013-08-09 09:04:00,80.0,71.8,29.91,West,277,3.0,9.0,76,0.00,,,0.00,Wunderground PWS Mod,2013-08-09 13:04:00,
2013-08-09 09:14:00,80.3,71.6,29.91,West,275,4.0,12.0,75,0.00,,,0.00,Wunderground PWS Mod,2013-08-09 13:14:00,
2013-08-09 09:18:00,80.4,70.9,29.90,West,270,4.0,11.0,73,0.00,,,0.00,Wunderground PWS Mod,2013-08-09 13:18:00,
2013-08-09 09:23:00,80.7,72.0,29.90,West,272,3.0,12.0,75,0.00,,,0.00,Wunderground PWS Mod,2013-08-09 13:23:00,
2013-08-09 09:34:00,81.1,71.2,29.91,WNW,299,3.0,12.0,72,0.00,,,0.00,Wunderground PWS Mod,2013-08-09 13:34:00,
2013-08-09 09:43:00,82.8,72.0,29.91,SW,235,4.0,12.0,70,0.00,,,0.00,Wunderground PWS Mod,2013-08-09 13:43:00,
2013-08-09 09:46:00,82.4,71.2,29.90,WNW,293,4.0,12.0,69,0.00,,,0.00,Wunderground PWS Mod,2013-08-09 13:46:00,
2013-08-09 09:54:00,83.2,71.5,29.90,SW,225,3.0,12.0,68,0.00,,,0.00,Wunderground PWS Mod,2013-08-09 13:54:00,
2013-08-09 10:04:00,82.4,71.2,29.90,WNW,282,4.0,11.0,69,0.00,,,0.00,Wunderground PWS Mod,2013-08-09 14:04:00,
2013-08-09 10:13:00,83.5,71.4,29.91,West,281,7.0,12.0,67,0.00,,,0.00,Wunderground PWS Mod,2013-08-09 14:13:00,
2013-08-09 10:16:00,83.3,70.8,29.90,WNW,293,5.0,12.0,66,0.00,,,0.00,Wunderground PWS Mod,2013-08-09 14:16:00,
2013-08-09 10:23:00,83.3,70.8,29.91,WNW,284,3.0,12.0,66,0.00,,,0.00,Wunderground PWS Mod,2013-08-09 14:23:00,
2013-08-09 10:34:00,84.0,71.9,29.91,SSW,211,3.0,12.0,67,0.00,,,0.00,Wunderground PWS Mod,2013-08-09 14:34:00,
2013-08-09 10:43:00,84.3,71.2,29.91,West,281,8.0,12.0,65,0.00,,,0.00,Wunderground PWS Mod,2013-08-09 14:43:00,
2013-08-09 10:48:00,84.8,70.8,29.90,SSW,203,5.0,11.0,63,0.00,,,0.00,Wunderground PWS Mod,2013-08-09 14:48:00,
2013-08-09 10:54:00,85.4,71.8,29.91,SW,231,1.0,12.0,64,0.00,,,0.00,Wunderground PWS Mod,2013-08-09 14:54:00,
2013-08-09 11:03:00,85.7,71.7,29.90,SW,218,3.0,12.0,63,0.00,,,0.00,Wunderground PWS Mod,2013-08-09 15:03:00,
2013-08-09 11:13:00,86.4,71.8,29.91,WNW,298,1.0,12.0,62,0.00,,,0.00,Wunderground PWS Mod,2013-08-09 15:13:00,
2013-08-09 11:16:00,86.5,71.0,29.90,West,270,4.0,11.0,60,0.00,,,0.00,Wunderground PWS Mod,2013-08-09 15:16:00,
2013-08-09 11:24:00,86.9,70.8,29.91,SW,226,4.0,12.0,59,0.00,,,0.00,Wunderground PWS Mod,2013-08-09 15:24:00,
2013-08-09 11:34:00,86.8,71.2,29.91,SSW,209,3.0,12.0,60,0.00,,,0.00,Wunderground PWS Mod,2013-08-09 15:34:00,
2013-08-09 11:44:00,86.9,71.3,29.91,West,277,1.0,12.0,60,0.00,,,0.00,Wunderground PWS Mod,2013-08-09 15:44:00,
2013-08-09 11:50:00,87.0,71.4,29.90,WNW,293,4.0,11.0,60,0.00,,,0.00,Wunderground PWS Mod,2013-08-09 15:50:00,
2013-08-09 11:52:00,87.0,71.4,29.90,WNW,293,4.0,11.0,60,0.00,,,0.00,Wunderground PWS Mod,2013-08-09 15:52:00,
2013-08-09 11:54:00,87.1,71.5,29.91,West,281,6.0,12.0,60,0.00,,,0.00,Wunderground PWS Mod,2013-08-09 15:54:00,
2013-08-09 12:03:00,88.2,72.1,29.90,West,279,1.0,11.0,59,0.00,,,0.00,Wunderground PWS Mod,2013-08-09 16:03:00,
2013-08-09 12:13:00,88.2,70.5,29.90,SW,223,2.0,11.0,56,0.00,,,0.00,Wunderground PWS Mod,2013-08-09 16:13:00,
2013-08-09 12:18:00,88.0,69.8,29.90,West,270,4.0,10.0,55,0.00,,,0.00,Wunderground PWS Mod,2013-08-09 16:18:00,
2013-08-09 12:24:00,87.9,70.2,29.90,SSW,197,3.0,11.0,56,0.00,,,0.00,Wunderground PWS Mod,2013-08-09 16:24:00,
2013-08-09 12:33:00,87.5,69.9,29.90,SW,234,3.0,11.0,56,0.00,,,0.00,Wunderground PWS Mod,2013-08-09 16:33:00,
2013-08-09 12:43:00,87.9,69.2,29.89,SW,222,1.0,11.0,54,0.00,,,0.00,Wunderground PWS Mod,2013-08-09 16:43:00,
2013-08-09 12:48:00,88.5,69.2,29.89,West,270,4.0,10.0,53,0.00,,,0.00,Wunderground PWS Mod,2013-08-09 16:48:00,
2013-08-09 12:54:00,89.2,69.8,29.89,West,271,3.0,11.0,53,0.00,,,0.00,Wunderground PWS Mod,2013-08-09 16:54:00,
2013-08-09 13:03:00,88.9,69.6,29.89,NW,308,5.0,10.0,53,0.00,,,0.00,Wunderground PWS Mod,2013-08-09 17:03:00,
2013-08-09 13:13:00,89.2,69.8,29.89,West,280,5.0,10.0,53,0.00,,,0.00,Wunderground PWS Mod,2013-08-09 17:13:00,
2013-08-09 13:16:00,89.0,69.1,29.89,West,270,5.0,10.0,52,0.00,,,0.00,Wunderground PWS Mod,2013-08-09 17:16:00,
2013-08-09 13:24:00,88.9,70.1,29.89,WNW,282,2.0,10.0,54,0.00,,,0.00,Wunderground PWS Mod,2013-08-09 17:24:00,
2013-08-09 13:33:00,88.9,69.0,29.89,WNW,286,7.0,10.0,52,0.00,,,0.00,Wunderground PWS Mod,2013-08-09 17:33:00,
2013-08-09 13:43:00,89.0,69.1,29.89,WNW,293,3.0,10.0,52,0.00,,,0.00,Wunderground PWS Mod,2013-08-09 17:43:00,
2013-08-09 13:46:00,88.7,69.4,29.88,WNW,293,4.0,13.0,53,0.00,,,0.00,Wunderground PWS Mod,2013-08-09 17:46:00,
2013-08-09 13:54:00,88.5,68.6,29.89,WNW,292,7.0,10.0,52,0.00,,,0.00,Wunderground PWS Mod,2013-08-09 17:54:00,
2013-08-09 14:03:00,88.2,68.9,29.88,WNW,282,2.0,10.0,53,0.00,,,0.00,Wunderground PWS Mod,2013-08-09 18:03:00,
2013-08-09 14:13:00,88.0,69.3,29.87,NW,308,3.0,13.0,54,0.00,,,0.00,Wunderground PWS Mod,2013-08-09 18:13:00,
2013-08-09 14:18:00,88.2,71.0,29.87,NW,315,3.0,15.0,57,0.00,,,0.00,Wunderground PWS Mod,2013-08-09 18:18:00,
2013-08-09 14:24:00,88.5,69.7,29.87,West,262,2.0,13.0,54,0.00,,,0.00,Wunderground PWS Mod,2013-08-09 18:24:00,
2013-08-09 14:33:00,87.6,71.0,29.88,SW,215,4.0,13.0,58,0.00,,,0.00,Wunderground PWS Mod,2013-08-09 18:33:00,
2013-08-09 14:44:00,86.3,71.3,29.87,South,190,5.0,15.0,61,0.00,,,0.00,Wunderground PWS Mod,2013-08-09 18:44:00,
2013-08-09 14:48:00,86.3,72.7,29.86,SSW,203,3.0,10.0,64,0.00,,,0.00,Wunderground PWS Mod,2013-08-09 18:48:00,
2013-08-09 14:54:00,86.0,71.9,29.87,South,186,3.0,15.0,63,0.00,,,0.00,Wunderground PWS Mod,2013-08-09 18:54:00,
2013-08-09 15:03:00,85.9,71.8,29.86,SSW,213,3.0,15.0,63,0.00,,,0.00,Wunderground PWS Mod,2013-08-09 19:03:00,
2013-08-09 15:13:00,88.0,72.4,29.86,SSW,195,1.0,15.0,60,0.00,,,0.00,Wunderground PWS Mod,2013-08-09 19:13:00,
2013-08-09 15:16:00,88.4,72.2,29.86,SSW,203,2.0,7.0,59,0.00,,,0.00,Wunderground PWS Mod,2013-08-09 19:16:00,
2013-08-09 15:23:00,89.4,73.2,29.86,WNW,292,2.0,15.0,59,0.00,,,0.00,Wunderground PWS Mod,2013-08-09 19:23:00,
2013-08-09 15:34:00,89.5,72.8,29.86,SSW,204,7.0,15.0,58,0.00,,,0.00,Wunderground PWS Mod,2013-08-09 19:34:00,
2013-08-09 15:43:00,89.3,72.6,29.85,West,270,2.0,15.0,58,0.00,,,0.00,Wunderground PWS Mod,2013-08-09 19:43:00,
2013-08-09 15:48:00,89.4,72.7,29.86,SW,225,3.0,10.0,58,0.00,,,0.00,Wunderground PWS Mod,2013-08-09 19:48:00,
2013-08-09 15:54:00,89.6,73.9,29.85,South,178,2.0,15.0,60,0.00,,,0.00,Wunderground PWS Mod,2013-08-09 19:54:00,
2013-08-09 16:03:00,90.5,73.7,29.86,SSW,212,1.0,7.0,58,0.00,,,0.00,Wunderground PWS Mod,2013-08-09 20:03:00,
2013-08-09 16:14:00,90.7,74.4,29.86,SW,215,1.0,10.0,59,0.00,,,0.00,Wunderground PWS Mod,2013-08-09 20:14:00,
2013-08-09 16:18:00,89.7,74.9,29.86,SSW,203,3.0,8.0,62,0.00,,,0.00,Wunderground PWS Mod,2013-08-09 20:18:00,
2013-08-09 16:23:00,88.7,74.0,29.85,SSW,199,4.0,10.0,62,0.00,,,0.00,Wunderground PWS Mod,2013-08-09 20:23:00,
2013-08-09 16:34:00,88.3,74.6,29.87,NNW,329,2.0,10.0,64,0.00,,,0.00,Wunderground PWS Mod,2013-08-09 20:34:00,
2013-08-09 16:43:00,81.7,73.0,29.87,WNW,296,6.0,10.0,75,0.00,,,0.00,Wunderground PWS Mod,2013-08-09 20:43:00,
2013-08-09 16:46:00,82.4,76.3,29.87,WNW,293,5.0,17.0,82,0.12,,,0.12,Wunderground PWS Mod,2013-08-09 20:46:00,
2013-08-09 16:54:00,79.6,73.3,29.87,North,354,1.0,12.0,81,0.00,,,0.00,Wunderground PWS Mod,2013-08-09 20:54:00,
2013-08-09 17:03:00,80.7,74.0,29.87,NW,320,2.0,8.0,80,0.00,,,0.00,Wunderground PWS Mod,2013-08-09 21:03:00,
2013-08-09 17:13:00,81.9,73.6,29.88,WNW,290,4.0,17.0,76,0.00,,,0.00,Wunderground PWS Mod,2013-08-09 21:13:00,
2013-08-09 17:16:00,81.7,73.0,29.86,WNW,293,2.0,5.0,75,0.12,,,0.12,Wunderground PWS Mod,2013-08-09 21:16:00,
2013-08-09 17:24:00,81.8,73.5,29.87,WNW,291,1.0,17.0,76,0.00,,,0.00,Wunderground PWS Mod,2013-08-09 21:24:00,
2013-08-09 17:34:00,83.6,74.4,29.87,North,0,2.0,17.0,74,0.00,,,0.00,Wunderground PWS Mod,2013-08-09 21:34:00,
2013-08-09 17:43:00,84.7,74.3,29.86,NNE,13,1.0,17.0,71,0.00,,,0.00,Wunderground PWS Mod,2013-08-09 21:43:00,
2013-08-09 17:48:00,84.3,74.7,29.86,North,0,2.0,6.0,73,0.00,,,0.12,Wunderground PWS Mod,2013-08-09 21:48:00,
2013-08-09 17:54:00,84.3,74.3,29.86,NNW,342,2.0,17.0,72,0.00,,,0.00,Wunderground PWS Mod,2013-08-09 21:54:00,
2013-08-09 18:04:00,84.3,74.7,29.86,NNW,328,1.0,5.0,73,0.00,,,0.00,Wunderground PWS Mod,2013-08-09 22:04:00,
2013-08-09 18:14:00,84.1,74.1,29.85,WNW,295,2.0,6.0,72,0.00,,,0.00,Wunderground PWS Mod,2013-08-09 22:14:00,
2013-08-09 18:20:00,84.6,74.2,29.85,NW,315,2.0,6.0,71,0.00,,,0.12,Wunderground PWS Mod,2013-08-09 22:20:00,
2013-08-09 18:22:00,84.6,74.2,29.85,NW,315,2.0,6.0,71,0.00,,,0.12,Wunderground PWS Mod,2013-08-09 22:22:00,
2013-08-09 18:23:00,85.0,74.5,29.85,NNW,335,2.0,6.0,71,0.00,,,0.00,Wunderground PWS Mod,2013-08-09 22:23:00,
2013-08-09 18:34:00,84.9,74.4,29.86,NNW,335,2.0,6.0,71,0.00,,,0.00,Wunderground PWS Mod,2013-08-09 22:34:00,
2013-08-09 18:43:00,85.2,75.1,29.86,North,357,1.0,6.0,72,0.00,,,0.00,Wunderground PWS Mod,2013-08-09 22:43:00,
2013-08-09 18:46:00,85.1,73.8,29.86,NNW,338,2.0,5.0,69,0.00,,,0.12,Wunderground PWS Mod,2013-08-09 22:46:00,
2013-08-09 18:53:00,85.3,74.8,29.86,NNW,329,2.0,6.0,71,0.00,,,0.00,Wunderground PWS Mod,2013-08-09 22:53:00,
2013-08-09 19:04:00,85.3,74.0,29.86,North,350,3.0,6.0,69,0.00,,,0.00,Wunderground PWS Mod,2013-08-09 23:04:00,
2013-08-09 19:10:00,85.1,73.8,29.86,NNW,338,2.0,5.0,69,0.00,,,0.12,Wunderground PWS Mod,2013-08-09 23:10:00,
2013-08-09 19:12:00,85.1,73.8,29.86,NNW,338,2.0,5.0,69,0.00,,,0.12,Wunderground PWS Mod,2013-08-09 23:12:00,
2013-08-09 19:13:00,86.2,73.0,29.86,NW,315,1.0,6.0,65,0.00,,,0.00,Wunderground PWS Mod,2013-08-09 23:13:00,
2013-08-09 19:24:00,86.2,72.6,29.87,WNW,301,2.0,6.0,64,0.00,,,0.00,Wunderground PWS Mod,2013-08-09 23:24:00,
2013-08-09 19:33:00,85.4,70.9,29.87,NW,320,5.0,6.0,62,0.00,,,0.00,Wunderground PWS Mod,2013-08-09 23:33:00,
2013-08-09 19:44:00,84.0,70.5,29.87,WNW,298,2.0,8.0,64,0.00,,,0.00,Wunderground PWS Mod,2013-08-09 23:44:00,
2013-08-09 19:50:00,84.3,70.8,29.88,NW,315,3.0,9.0,64,0.00,,,0.12,Wunderground PWS Mod,2013-08-09 23:50:00,
2013-08-09 19:52:00,84.3,70.8,29.88,NW,315,3.0,9.0,64,0.00,,,0.12,Wunderground PWS Mod,2013-08-09 23:52:00,
2013-08-09 19:53:00,83.8,70.3,29.87,NNW,337,1.0,8.0,64,0.00,,,0.00,Wunderground PWS Mod,2013-08-09 23:53:00,
2013-08-09 19:54:00,84.3,70.8,29.88,NW,315,3.0,9.0,64,0.00,,,0.12,Wunderground PWS Mod,2013-08-09 23:54:00,
2013-08-09 20:04:00,83.5,70.0,29.88,NNW,327,3.0,6.0,64,0.00,,,0.00,Wunderground PWS Mod,2013-08-10 00:04:00,
2013-08-09 20:10:00,84.3,70.8,29.88,NW,315,3.0,9.0,64,0.00,,,0.12,Wunderground PWS Mod,2013-08-10 00:10:00,
2013-08-09 20:12:00,84.3,70.8,29.88,NW,315,3.0,9.0,64,0.00,,,0.12,Wunderground PWS Mod,2013-08-10 00:12:00,
2013-08-09 20:13:00,82.5,69.5,29.88,NW,311,1.0,9.0,65,0.00,,,0.00,Wunderground PWS Mod,2013-08-10 00:13:00,
2013-08-09 20:24:00,82.1,69.2,29.88,WNW,301,5.0,9.0,65,0.00,,,0.00,Wunderground PWS Mod,2013-08-10 00:24:00,
2013-08-09 20:33:00,82.1,68.7,29.89,NW,318,1.0,9.0,64,0.00,,,0.00,Wunderground PWS Mod,2013-08-10 00:33:00,
2013-08-09 20:43:00,81.8,68.4,29.89,NW,325,3.0,9.0,64,0.00,,,0.00,Wunderground PWS Mod,2013-08-10 00:43:00,
2013-08-09 20:46:00,81.9,68.1,29.90,NNW,338,3.0,9.0,63,0.00,,,0.12,Wunderground PWS Mod,2013-08-10 00:46:00,
2013-08-09 20:54:00,81.8,68.4,29.89,NW,325,3.0,9.0,64,0.00,,,0.00,Wunderground PWS Mod,2013-08-10 00:54:00,
2013-08-09 21:03:00,82.0,68.2,29.90,NW,309,1.0,8.0,63,0.00,,,0.00,Wunderground PWS Mod,2013-08-10 01:03:00,
2013-08-09 21:14:00,81.9,68.1,29.90,NNW,330,4.0,9.0,63,0.00,,,0.00,Wunderground PWS Mod,2013-08-10 01:14:00,
2013-08-09 21:16:00,81.9,68.1,29.92,NW,315,3.0,8.0,63,0.00,,,0.12,Wunderground PWS Mod,2013-08-10 01:16:00,
2013-08-09 21:23:00,81.9,68.1,29.91,NW,321,3.0,9.0,63,0.00,,,0.00,Wunderground PWS Mod,2013-08-10 01:23:00,
2013-08-09 21:34:00,82.0,68.2,29.92,NW,311,2.0,9.0,63,0.00,,,0.00,Wunderground PWS Mod,2013-08-10 01:34:00,
2013-08-09 21:43:00,82.2,68.3,29.92,NW,305,1.0,9.0,63,0.00,,,0.00,Wunderground PWS Mod,2013-08-10 01:43:00,
2013-08-09 21:48:00,81.9,68.5,29.92,WNW,293,2.0,7.0,64,0.00,,,0.12,Wunderground PWS Mod,2013-08-10 01:48:00,
2013-08-09 21:54:00,81.6,68.2,29.92,WNW,295,2.0,9.0,64,0.00,,,0.00,Wunderground PWS Mod,2013-08-10 01:54:00,
2013-08-09 22:04:00,81.7,68.3,29.92,NNW,344,1.0,8.0,64,0.00,,,0.00,Wunderground PWS Mod,2013-08-10 02:04:00,
2013-08-09 22:14:00,81.6,68.2,29.92,NW,320,1.0,8.0,64,0.00,,,0.00,Wunderground PWS Mod,2013-08-10 02:14:00,
2013-08-09 22:18:00,81.5,69.0,29.92,WNW,293,2.0,6.0,66,0.00,,,0.12,Wunderground PWS Mod,2013-08-10 02:18:00,
2013-08-09 22:23:00,81.4,68.5,29.93,WNW,286,3.0,8.0,65,0.00,,,0.00,Wunderground PWS Mod,2013-08-10 02:23:00,
2013-08-09 22:34:00,81.0,68.6,29.93,NW,304,3.0,8.0,66,0.00,,,0.00,Wunderground PWS Mod,2013-08-10 02:34:00,
2013-08-09 22:44:00,81.0,68.6,29.92,West,280,2.0,8.0,66,0.00,,,0.00,Wunderground PWS Mod,2013-08-10 02:44:00,
2013-08-09 22:46:00,81.0,68.6,29.92,WNW,293,2.0,5.0,66,0.00,,,0.12,Wunderground PWS Mod,2013-08-10 02:46:00,
2013-08-09 22:48:00,81.0,68.6,29.93,West,276,3.0,8.0,66,0.00,,,0.00,Wunderground PWS Mod,2013-08-10 02:48:00,
2013-08-09 22:53:00,80.9,68.9,29.93,WNW,284,1.0,8.0,67,0.00,,,0.00,Wunderground PWS Mod,2013-08-10 02:53:00,
2013-08-09 23:04:00,80.6,68.6,29.93,WNW,289,3.0,6.0,67,0.00,,,0.00,Wunderground PWS Mod,2013-08-10 03:04:00,
2013-08-09 23:14:00,79.8,68.7,29.93,WNW,297,4.0,6.0,69,0.00,,,0.00,Wunderground PWS Mod,2013-08-10 03:14:00,
2013-08-09 23:16:00,79.9,68.8,29.93,WNW,293,3.0,6.0,69,0.00,,,0.12,Wunderground PWS Mod,2013-08-10 03:16:00,
2013-08-09 23:23:00,79.8,68.7,29.93,WNW,291,1.0,6.0,69,0.00,,,0.00,Wunderground PWS Mod,2013-08-10 03:23:00,
2013-08-09 23:33:00,79.8,68.7,29.94,WNW,299,1.0,6.0,69,0.00,,,0.00,Wunderground PWS Mod,2013-08-10 03:33:00,
2013-08-09 23:44:00,79.7,68.6,29.94,West,281,0.0,6.0,69,0.00,,,0.00,Wunderground PWS Mod,2013-08-10 03:44:00,
2013-08-09 23:48:00,79.7,69.0,29.93,West,270,1.0,4.0,70,0.00,,,0.12,Wunderground PWS Mod,2013-08-10 03:48:00,
2013-08-09 23:53:00,79.7,69.0,29.94,WNW,297,0.0,6.0,70,0.00,,,0.00,Wunderground PWS Mod,2013-08-10 03:53:00,